Wind_Speed
31 31 30 30 30 30 30 30 29 29 29 29 28 29 29 29 29 29 28 28 28 29 31 33 37 42 47 49 50 49 46 45 46 47 46 46 46 47 47 48 49 48 46 46 47 47 46 45 45 46 47 47 46 45 45 44 43 41 40 39 37 36 34
32 32 32 32 31 30 29 29 30 30 30 30 29 29 29 29 30 30 29 29 29 30 31 33 35 39 44 48 52 53 49 44 44 47 48 47 48 49 47 47 48 48 47 47 49 50 48 47 47 49 50 49 48 47 47 47 47 46 44 42 40 39 37
32 33 33 33 32 31 30 30 30 31 31 31 30 30 29 30 30 30 30 30 30 31 32 33 35 38 42 46 50 53 53 48 45 46 47 48 50 51 50 48 48 50 50 50 52 52 50 50 50 50 51 51 49 49 50 50 49 48 47 45 43 41 40
33 33 33 33 33 32 32 31 31 32 32 32 32 31 31 30 31 31 31 31 32 32 33 34 35 37 40 44 47 51 55 55 51 49 49 50 52 53 54 52 49 49 51 53 55 54 52 52 52 51 51 51 51 51 53 53 51 49 48 48 47 44 42
36 35 35 34 33 33 32 32 32 33 33 33 33 33 32 32 32 32 32 33 33 33 33 34 35 37 39 42 46 50 53 56 57 55 53 53 53 54 56 58 56 53 53 54 56 57 54 53 53 53 53 52 52 52 53 53 52 50 48 48 49 48 46
40 39 37 36 35 34 33 33 33 34 34 34 34 34 34 34 34 34 34 34 34 35 35 35 36 37 38 40 44 48 51 54 56 58 58 57 56 54 54 57 60 60 59 58 59 60 58 55 52 51 52 52 53 54 54 54 53 52 50 49 50 50 48
43 42 41 40 38 37 35 34 34 35 35 36 36 35 35 35 35 36 36 36 36 36 37 37 37 37 38 40 42 45 49 52 54 57 59 60 60 58 56 55 57 61 64 64 64 63 61 59 55 51 50 51 53 54 55 56 56 56 54 52 52 52 51
44 44 44 43 42 41 39 38 37 36 36 37 37 37 37 36 36 37 38 38 39 39 39 39 39 39 40 41 42 44 47 50 52 54 57 59 61 62 60 57 56 57 61 64 65 65 64 62 59 55 53 53 54 54 55 57 58 59 58 55 55 55 53
45 45 45 45 44 44 43 42 40 39 39 39 39 39 39 39 39 39 39 40 41 42 42 42 42 42 42 43 44 45 47 48 50 53 54 57 59 62 63 62 59 57 58 59 61 64 65 64 61 59 58 58 57 55 55 56 58 60 60 60 59 58 57
49 48 47 46 46 45 45 45 44 43 42 41 41 41 41 41 42 42 42 42 43 44 44 45 45 45 45 45 46 46 48 49 50 52 53 55 57 59 61 62 61 60 60 60 60 61 64 66 64 62 62 63 63 62 59 58 59 61 62 63 63 62 60
52 51 50 49 48 47 47 47 47 46 46 45 45 44 44 44 44 45 45 46 46 46 47 47 47 48 48 48 49 49 49 50 51 52 53 55 56 58 59 60 60 60 61 63 64 62 62 65 67 66 65 66 67 68 67 64 63 63 64 65 66 65 64
54 53 53 52 52 51 50 50 49 49 49 49 49 48 48 47 47 47 48 49 49 49 49 49 49 50 50 51 51 51 51 52 52 53 54 56 56 57 59 59 60 60 60 62 66 68 67 66 67 69 69 69 69 70 71 71 70 69 67 67 68 68 67
56 56 56 56 55 55 54 53 52 52 52 52 52 52 52 51 51 51 51 51 51 51 51 51 52 52 52 53 53 53 53 54 54 55 55 56 58 58 59 60 61 61 61 61 64 69 71 71 69 69 70 71 71 72 72 73 75 75 72 71 71 71 70
59 59 59 59 59 58 57 56 55 55 55 55 55 55 55 55 55 54 54 54 54 54 54 54 54 54 55 55 55 55 55 56 56 56 57 58 59 59 60 61 62 62 62 62 63 66 70 74 74 73 71 72 72 73 73 73 74 76 76 75 75 75 74
62 62 61 61 62 62 61 60 58 58 58 58 58 58 58 58 57 57 57 57 57 56 56 56 57 57 57 57 57 57 57 57 57 58 58 59 59 60 61 62 63 64 64 64 64 65 67 71 75 76 75 74 73 73 73 73 74 75 76 76 76 76 77
67 65 64 64 65 64 64 62 61 61 60 60 60 61 61 61 61 60 60 60 60 59 59 59 59 59 59 59 59 59 59 59 59 59 59 60 61 61 62 63 64 65 66 67 67 67 67 68 70 74 76 76 75 74 73 73 73 74 75 76 76 76 76
70 68 68 69 68 67 66 65 64 63 63 63 62 62 63 64 64 63 63 62 62 62 62 62 62 62 62 62 62 62 61 61 61 61 61 61 62 62 63 64 65 65 66 67 68 69 69 70 70 71 73 74 75 75 75 74 73 73 74 76 76 76 75
72 71 72 72 72 72 70 68 67 66 66 66 65 65 65 66 67 67 66 65 65 65 65 65 66 66 65 65 65 65 64 64 64 64 63 63 63 64 64 65 66 66 67 68 69 69 70 71 71 71 72 73 73 74 75 75 75 74 74 75 76 77 76
72 73 73 74 74 74 73 72 72 70 69 68 68 68 68 69 70 70 69 68 68 68 69 69 69 69 69 69 69 68 68 68 68 67 67 66 66 66 66 67 67 68 69 69 70 70 71 71 71 72 72 73 73 73 74 75 76 76 76 76 77 77 77
71 72 73 73 74 74 75 75 75 74 73 72 71 71 71 72 72 72 72 71 71 72 72 72 72 71 72 72 72 72 72 71 71 70 70 70 69 69 69 69 70 70 70 71 71 71 71 71 72 73 73 73 73 73 74 75 75 76 77 78 78 79 78
70 71 71 72 72 73 74 75 76 76 75 74 74 74 75 75 75 76 75 75 75 76 76 75 74 74 75 75 75 75 75 75 74 74 73 73 73 73 73 72 72 73 73 73 73 73 72 72 73 74 74 74 74 74 74 75 75 76 77 78 79 80 80
71 71 71 71 71 71 72 73 74 75 75 74 74 76 78 80 80 80 80 79 79 79 79 78 77 77 78 78 78 78 78 78 77 77 77 77 76 76 76 76 76 76 76 76 76 75 75 75 74 75 75 74 74 74 75 75 75 76 76 77 79 80 81
73 72 72 71 71 71 71 70 71 72 71 72 73 75 79 83 84 83 84 83 83 83 82 81 80 81 81 81 80 80 80 80 80 80 79 79 80 80 79 79 79 79 80 79 79 78 78 77 77 76 76 76 75 75 76 76 77 77 77 77 78 80 81
74 74 74 73 73 72 71 70 70 68 67 69 73 76 80 83 84 84 86 87 87 87 86 85 84 84 84 83 83 83 83 82 82 82 82 82 82 82 82 82 82 83 83 83 82 82 81 81 80 79 79 79 78 78 79 79 79 79 79 79 80 81 81
76 75 75 75 74 73 72 71 71 69 68 70 73 76 79 82 84 85 86 87 89 91 91 89 88 87 87 86 85 85 85 85 84 84 84 84 84 85 85 85 85 85 85 85 84 84 84 84 83 83 82 82 82 82 83 83 83 83 82 82 82 83 84
77 76 76 76 75 75 75 74 73 70 69 70 73 76 79 82 83 84 85 88 90 91 91 91 90 90 90 90 89 88 88 87 86 86 86 86 87 87 87 87 87 87 87 86 86 86 86 86 86 86 85 85 85 86 86 86 86 86 86 86 86 87 87
77 77 77 77 76 76 76 76 75 73 71 71 72 75 78 81 82 82 84 87 90 91 91 91 90 91 93 94 93 93 92 90 90 89 89 89 89 89 89 89 89 88 88 88 88 88 88 87 87 87 87 87 88 88 89 89 89 89 89 89 89 89 90
78 78 78 78 78 77 77 76 76 75 75 74 74 75 77 80 81 82 84 85 86 88 90 91 91 91 93 95 96 96 95 94 93 93 92 92 91 91 91 91 90 90 90 90 90 90 89 89 89 89 89 89 90 90 90 91 91 91 91 92 92 92 92
78 78 78 78 77 77 77 77 76 76 76 75 75 76 78 80 82 84 84 83 83 83 86 88 90 91 93 95 97 98 97 96 95 95 95 95 95 94 94 94 93 92 92 92 92 92 91 90 90 90 90 91 91 92 92 93 93 94 94 94 94 94 94
78 79 79 78 77 76 76 77 77 77 76 75 75 76 78 81 84 84 82 81 81 81 83 85 87 89 91 93 96 98 98 97 96 97 97 97 97 97 97 97 96 96 95 95 95 95 94 94 93 92 92 92 93 93 94 95 96 97 97 97 96 96 95
78 78 78 78 77 76 75 75 76 77 76 75 75 76 78 81 85 84 80 79 80 80 82 84 85 86 87 88 90 93 95 95 95 96 97 97 98 98 98 98 98 98 98 98 98 98 98 97 96 96 95 95 96 97 98 100 101 101 101 100 100 100 99
77 77 77 77 76 75 74 74 75 76 76 76 76 77 78 81 83 83 80 78 78 78 79 81 83 84 84 85 86 88 90 91 91 91 93 95 96 96 97 98 98 99 99 99 99 99 99 99 99 99 99 98 99 100 102 103 104 104 104 105 105 105 105
75 75 75 75 74 74 73 74 74 74 75 76 78 78 79 79 81 81 79 77 75 75 76 77 79 80 81 82 83 84 86 88 88 87 87 89 90 91 93 94 96 97 98 98 98 98 99 99 100 100 100 100 101 102 103 104 105 106 107 108 108 108 109
72 72 72 72 72 72 73 73 73 73 74 75 77 78 79 79 79 79 77 75 73 72 73 74 76 77 78 79 81 82 83 84 85 84 83 83 83 83 84 86 87 88 89 90 91 92 93 94 95 95 96 96 97 99 100 102 104 105 107 108 109 110 110
69 69 69 68 68 69 70 71 71 72 73 74 75 77 78 78 78 77 74 71 70 70 70 71 73 74 75 76 78 79 79 80 81 81 80 79 78 76 76 76 75 75 76 77 79 81 83 85 87 88 89 89 91 93 95 97 98 100 102 103 105 106 107
65 65 65 64 63 65 67 68 69 69 70 72 73 75 77 77 76 74 71 69 68 68 68 69 70 72 73 74 76 77 78 78 79 78 78 78 76 73 70 69 68 67 67 68 69 71 73 75 77 78 79 80 82 85 89 91 94 96 97 98 98 99 100
61 60 60 59 60 62 64 64 65 67 68 70 71 73 74 74 73 71 70 69 67 67 67 68 69 70 72 73 74 75 76 77 77 77 77 76 75 72 68 65 63 62 62 62 62 64 66 68 68 68 69 71 75 79 83 86 89 90 91 91 92 93 93
Wind_Direction
259 258 257 256 254 251 249 247 246 245 243 240 239 240 241 242 242 243 242 240 238 235 232 229 224 220 219 217 216 216 220 225 229 230 229 230 233 232 232 232 232 235 237 238 239 240 238 236 236 238 239 241 241 239 237 237 239 240 245 248 249 248 247
258 259 259 259 257 254 250 247 244 244 244 243 242 242 242 243 243 242 242 241 239 237 235 232 229 225 223 221 219 218 218 222 227 230 230 230 232 233 232 232 232 233 236 238 240 241 240 237 236 237 240 242 244 245 243 241 241 243 245 248 250 250 248
256 257 258 259 259 257 253 249 246 244 244 244 245 244 244 245 245 244 243 243 241 239 237 235 233 230 227 225 224 222 220 220 223 227 229 230 232 234 234 233 233 233 235 238 241 243 244 242 240 239 243 246 247 247 247 245 244 244 246 247 249 249 248
255 256 258 258 259 259 257 253 250 248 246 246 246 247 246 246 246 246 245 244 244 242 239 237 235 233 231 228 227 226 225 224 224 225 228 230 232 235 236 235 233 233 233 236 241 244 244 245 245 244 244 247 248 247 248 248 247 247 248 249 249 249 250
254 255 257 258 259 259 259 257 254 252 251 249 249 248 248 247 246 246 246 246 246 245 242 240 238 236 234 232 229 228 228 229 228 226 226 228 229 232 236 237 236 234 234 235 239 243 243 243 245 247 248 249 249 249 249 250 250 251 252 253 252 251 250
251 253 255 257 258 258 259 258 257 255 253 252 252 251 249 247 246 245 245 246 246 247 246 243 241 239 237 236 233 231 230 231 231 230 228 227 226 226 229 235 237 236 236 237 238 241 243 242 242 246 250 250 250 250 250 252 253 254 254 255 254 253 251
250 251 252 254 256 257 257 257 257 256 254 253 253 252 251 248 246 244 244 245 245 246 247 246 244 241 239 238 236 234 233 232 232 232 232 230 228 226 225 228 233 235 236 236 237 238 240 241 240 241 245 249 251 251 251 251 254 255 255 254 254 254 253
251 251 251 252 253 254 255 255 255 255 254 254 253 252 252 251 248 246 244 243 243 244 245 245 245 244 241 240 239 237 236 234 233 233 233 233 232 231 229 228 230 233 235 235 235 235 236 238 239 237 237 242 247 251 252 251 252 254 255 254 253 254 254
253 252 251 251 251 252 252 253 253 253 253 253 252 252 251 251 251 249 247 244 243 242 243 244 244 245 244 241 240 239 238 237 236 235 234 234 234 234 235 234 232 232 234 235 235 235 235 235 237 236 235 236 238 243 248 251 251 252 254 255 255 254 254
254 253 252 252 251 251 251 252 251 252 252 252 251 251 250 250 250 251 250 248 245 243 242 242 243 243 244 243 241 240 239 239 238 237 236 235 235 235 236 237 236 234 233 234 235 236 236 237 237 236 235 235 235 237 241 246 249 250 251 254 256 256 256
254 254 254 253 253 252 252 251 251 251 251 251 250 250 249 249 249 249 250 250 248 246 243 242 242 242 243 243 243 241 240 239 239 239 238 237 237 236 236 237 237 237 235 233 233 234 236 238 239 240 238 237 237 238 239 242 245 248 249 250 252 254 255
255 255 255 255 254 253 252 251 251 250 250 250 250 249 249 248 248 248 249 249 249 249 247 244 242 242 242 243 243 243 242 241 240 240 240 239 239 238 238 238 238 237 236 234 233 233 233 235 237 240 241 241 241 241 241 243 245 247 248 249 250 250 251
256 255 255 254 254 253 252 252 251 250 250 249 249 248 248 248 248 248 248 249 249 249 249 248 246 244 242 242 242 243 243 243 242 241 241 241 241 240 240 240 240 239 238 236 235 234 235 235 235 236 239 242 243 244 245 245 247 248 247 248 249 249 248
256 255 255 254 254 253 252 251 250 250 250 250 249 249 248 247 247 247 248 248 249 249 249 249 248 247 245 244 243 243 243 243 243 243 242 242 242 242 242 242 242 242 241 240 237 236 236 237 238 238 238 239 241 243 245 247 248 250 250 249 249 250 249
255 255 255 255 255 254 252 251 249 249 249 249 249 250 249 248 247 246 246 247 248 248 248 249 249 249 248 247 246 245 244 243 243 244 244 244 243 243 243 243 243 244 244 244 242 240 239 238 239 241 242 241 241 242 243 245 247 249 251 251 251 252 252
256 255 255 255 254 254 254 253 251 250 249 248 249 249 250 250 248 247 246 246 246 247 247 248 248 248 248 248 248 247 246 246 245 244 244 245 245 245 245 244 244 244 245 245 245 245 243 242 242 242 243 245 245 245 245 245 247 249 251 252 252 252 254
256 255 255 254 254 254 253 253 253 252 252 250 249 249 249 249 249 248 247 246 246 246 246 246 247 247 247 248 248 248 248 248 247 247 246 246 246 246 246 246 246 246 246 246 246 246 246 246 245 245 245 245 246 248 248 248 249 250 252 254 254 253 254
256 255 254 254 254 254 253 253 252 252 252 252 251 250 249 249 249 248 248 247 247 246 246 245 245 246 246 247 247 247 248 248 248 248 248 248 247 247 247 247 247 247 248 247 247 247 247 248 248 247 247 247 247 248 249 250 251 252 253 254 255 255 255
256 255 254 253 253 253 253 252 252 250 250 250 251 251 251 250 250 249 248 247 247 247 247 246 245 245 245 246 246 246 246 246 247 247 248 248 248 249 249 249 248 248 249 249 249 248 248 249 249 249 249 249 249 249 249 250 251 252 254 255 257 257 257
257 257 255 254 253 252 252 252 251 251 250 249 249 250 251 251 251 251 250 248 247 247 247 247 246 246 245 245 245 245 246 246 246 246 246 247 247 248 249 249 249 249 249 250 250 249 250 250 250 250 251 250 250 250 250 251 251 252 253 255 257 258 258
260 259 258 256 254 253 252 251 251 250 250 250 250 250 250 250 250 250 250 249 249 247 247 247 246 246 246 246 245 245 245 245 245 245 246 246 246 247 248 248 249 249 250 250 250 250 250 251 251 251 251 251 252 252 252 252 252 252 252 254 255 257 258
263 261 260 259 257 255 253 252 251 250 249 249 250 250 250 250 249 249 249 249 249 248 248 247 247 247 247 246 246 246 245 245 245 245 245 246 246 247 247 248 248 249 249 250 250 250 251 251 251 252 252 252 252 253 253 253 253 253 253 254 254 256 257
264 264 263 262 260 259 256 254 253 252 251 250 248 248 249 249 248 248 249 249 249 249 248 248 248 247 247 247 247 247 246 246 246 245 245 246 246 246 247 247 248 248 249 249 250 250 251 251 251 252 252 253 253 253 253 254 254 254 254 255 255 255 256
264 264 264 263 262 261 260 258 256 254 253 252 249 247 247 248 248 248 248 249 249 249 248 248 248 248 248 248 248 248 248 247 247 247 247 247 247 247 247 247 248 248 249 249 250 250 251 251 251 252 252 253 253 253 253 253 254 254 254 255 255 256 256
264 264 264 265 264 264 262 261 258 256 253 253 252 250 249 248 247 247 248 248 249 249 249 249 249 249 250 250 249 249 249 249 249 249 248 248 248 248 248 248 248 249 249 250 250 251 251 252 252 252 252 253 253 254 254 254 254 254 254 254 254 255 255
263 264 264 264 264 264 264 263 262 259 257 255 256 255 254 252 250 248 248 248 249 250 250 250 250 250 251 251 251 250 250 250 250 250 250 250 250 250 250 250 250 250 250 251 251 252 252 252 253 253 253 253 254 254 254 254 254 254 255 255 254 255 255
262 262 263 263 263 263 263 264 264 263 261 259 258 258 258 257 256 253 251 250 249 250 250 250 250 251 251 251 251 251 250 250 251 251 251 251 252 252 252 252 252 252 252 252 252 253 253 253 254 254 254 254 255 255 255 255 255 255 255 255 255 255 255
260 261 262 262 263 263 263 263 263 264 264 263 261 260 260 260 259 258 256 253 251 251 251 250 250 250 251 252 251 251 250 250 250 251 251 252 252 253 253 253 254 254 254 254 254 254 254 254 255 255 255 256 256 256 256 256 256 256 256 255 255 255 255
259 259 260 261 262 263 264 263 263 262 262 262 262 262 262 261 260 258 258 257 255 254 253 252 251 250 251 252 252 252 251 251 251 251 251 252 252 252 253 253 254 254 255 255 256 256 256 256 257 257 257 257 257 257 258 258 258 257 257 256 256 255 255
258 259 259 259 260 261 262 264 264 264 263 262 262 262 262 261 260 259 259 258 258 256 255 254 253 252 252 253 253 253 253 252 251 252 252 252 253 253 253 254 254 255 255 256 256 257 257 258 258 258 258 259 259 259 259 259 259 258 258 258 257 256 256
259 259 259 259 259 259 260 261 263 264 264 263 262 262 261 261 261 261 260 259 258 257 256 256 255 254 254 255 255 256 255 254 253 253 253 253 254 254 255 255 255 256 256 256 257 258 258 259 259 259 259 259 260 260 260 260 260 260 260 260 260 259 258
258 259 259 259 259 259 259 259 260 261 263 263 262 261 260 260 261 262 261 259 258 257 256 256 256 256 256 256 256 257 258 257 256 254 254 254 254 255 255 256 257 257 257 258 258 259 260 260 261 261 261 261 261 261 261 261 261 261 261 261 261 261 260
258 258 258 259 259 259 259 259 258 259 260 260 260 260 260 260 260 261 260 260 259 258 258 257 257 258 258 257 257 258 258 259 258 257 256 256 256 256 255 255 256 257 258 258 259 260 261 262 262 262 263 263 262 262 262 262 262 262 261 261 261 261 261
258 257 257 257 257 258 258 257 257 257 257 257 258 259 259 259 259 259 260 260 259 259 258 258 258 258 258 258 259 259 259 260 261 261 260 259 259 258 258 257 257 257 257 258 259 260 261 262 262 262 263 263 263 262 262 262 262 262 262 261 261 261 261
257 257 256 256 255 256 256 256 256 255 254 254 255 256 257 258 259 259 260 260 260 260 259 259 259 259 259 259 259 260 261 261 262 263 263 263 263 262 262 262 261 261 260 260 259 259 260 260 261 261 262 262 262 262 262 262 262 262 261 261 261 261 261
257 257 256 256 255 254 254 254 254 253 253 252 252 253 255 256 258 260 262 262 261 261 260 260 260 260 260 260 260 261 262 263 264 265 266 267 268 268 268 267 267 267 266 265 263 263 262 261 261 261 261 261 261 261 260 260 260 260 260 261 261 262 262
257 256 256 256 255 254 253 253 254 253 253 252 252 252 254 256 258 260 262 262 262 261 261 261 261 261 261 261 262 262 263 264 265 266 267 269 271 272 272 272 272 272 270 269 268 267 266 264 263 263 262 261 260 259 258 258 259 260 261 261 262 263 264
Height
10607 10608 10609 10610 10611 10613 10615 10617 10618 10620 10620 10622 10623 10624 10626 10627 10628 10630 10631 10633 10635 10637 10639 10641 10643 10645 10647 10649 10651 10653 10655 10656 10656 10658 10661 10663 10664 10667 10670 10672 10674 10675 10678 10679 10680 10681 10682 10684 10685 10686 10687 10689 10691 10692 10695 10696 10697 10698 10699 10700 10702 10703 10704
10603 10604 10605 10606 10607 10609 10612 10613 10615 10616 10617 10619 10620 10621 10623 10624 10625 10626 10628 10630 10631 10633 10635 10636 10638 10640 10642 10644 10646 10648 10650 10652 10652 10654 10657 10659 10660 10662 10665 10668 10670 10671 10673 10675 10676 10676 10677 10679 10680 10680 10682 10685 10686 10688 10690 10691 10693 10694 10695 10696 10697 10699 10700
10599 10600 10601 10602 10603 10605 10607 10609 10611 10612 10614 10615 10617 10618 10620 10621 10622 10623 10625 10626 10627 10629 10630 10632 10633 10635 10637 10639 10641 10643 10645 10647 10649 10650 10652 10654 10656 10657 10660 10663 10665 10667 10669 10670 10671 10671 10672 10673 10675 10676 10678 10680 10682 10683 10684 10686 10687 10689 10690 10691 10692 10694 10696
10596 10596 10597 10598 10599 10601 10602 10604 10606 10607 10609 10611 10613 10614 10616 10617 10618 10619 10621 10622 10623 10625 10626 10627 10629 10630 10632 10634 10636 10638 10640 10642 10644 10646 10648 10650 10651 10653 10655 10658 10660 10662 10664 10665 10666 10667 10667 10668 10670 10671 10673 10675 10677 10678 10680 10680 10682 10684 10685 10686 10688 10690 10692
10592 10593 10593 10594 10595 10596 10597 10599 10600 10602 10603 10605 10607 10609 10611 10612 10614 10615 10616 10617 10619 10620 10621 10623 10624 10626 10627 10629 10631 10633 10635 10637 10639 10641 10643 10645 10647 10648 10650 10653 10655 10657 10659 10661 10661 10662 10663 10664 10665 10666 10668 10670 10671 10673 10675 10676 10677 10678 10680 10681 10683 10686 10687
10588 10589 10590 10590 10591 10592 10593 10594 10595 10596 10597 10599 10601 10603 10605 10607 10608 10609 10611 10612 10613 10614 10616 10618 10619 10621 10622 10624 10626 10628 10629 10631 10633 10635 10637 10639 10641 10643 10645 10647 10649 10652 10654 10655 10657 10658 10659 10660 10661 10662 10663 10664 10666 10667 10669 10670 10671 10672 10674 10676 10678 10680 10682
10583 10585 10585 10586 10587 10588 10588 10589 10590 10590 10592 10593 10594 10596 10598 10600 10601 10603 10605 10606 10607 10609 10610 10611 10613 10614 10616 10618 10619 10621 10623 10624 10626 10629 10631 10633 10635 10637 10639 10640 10643 10645 10647 10649 10651 10652 10654 10655 10656 10658 10659 10660 10660 10662 10664 10665 10665 10666 10668 10671 10672 10674 10676
10578 10580 10581 10581 10582 10583 10583 10584 10585 10585 10586 10587 10588 10590 10591 10593 10594 10596 10598 10599 10601 10602 10603 10604 10606 10607 10609 10611 10612 10614 10616 10617 10619 10621 10624 10626 10628 10630 10633 10635 10636 10638 10640 10642 10644 10646 10648 10649 10651 10653 10655 10656 10657 10657 10658 10660 10660 10661 10663 10665 10667 10668 10671
10572 10574 10575 10576 10577 10578 10578 10579 10579 10580 10580 10581 10582 10583 10585 10586 10587 10589 10591 10592 10594 10595 10596 10598 10599 10600 10601 10603 10605 10607 10608 10610 10612 10614 10617 10619 10621 10623 10625 10628 10630 10632 10634 10636 10637 10639 10641 10643 10645 10647 10649 10651 10652 10653 10653 10654 10655 10656 10657 10658 10660 10663 10666
10566 10567 10569 10570 10572 10572 10573 10574 10574 10574 10575 10575 10576 10577 10578 10579 10581 10582 10583 10584 10586 10588 10590 10591 10592 10593 10594 10596 10597 10599 10601 10603 10605 10607 10610 10612 10614 10616 10618 10620 10622 10625 10627 10629 10631 10633 10635 10637 10639 10641 10642 10644 10645 10646 10647 10648 10648 10650 10652 10652 10654 10656 10659
10558 10560 10562 10564 10565 10567 10568 10568 10569 10569 10569 10570 10570 10571 10572 10573 10574 10575 10576 10577 10578 10580 10582 10584 10585 10586 10588 10589 10590 10592 10594 10596 10598 10600 10602 10604 10606 10608 10610 10612 10614 10616 10619 10621 10623 10625 10627 10629 10631 10633 10635 10637 10638 10639 10640 10641 10640 10642 10646 10647 10648 10650 10652
10550 10552 10554 10556 10557 10559 10560 10561 10562 10563 10563 10564 10564 10565 10566 10566 10568 10569 10569 10570 10571 10573 10575 10577 10579 10580 10581 10582 10584 10585 10587 10589 10591 10593 10595 10597 10599 10600 10602 10604 10606 10609 10611 10613 10615 10617 10619 10621 10623 10625 10627 10629 10631 10631 10632 10633 10632 10634 10639 10640 10641 10643 10645
10541 10543 10545 10546 10548 10550 10552 10553 10555 10556 10556 10557 10557 10557 10558 10559 10561 10562 10563 10564 10565 10567 10569 10570 10572 10573 10575 10576 10577 10579 10581 10582 10584 10586 10588 10590 10591 10593 10595 10597 10599 10601 10603 10605 10607 10609 10611 10613 10615 10618 10620 10622 10624 10625 10626 10627 10625 10625 10630 10633 10633 10636 10638
10531 10533 10535 10536 10538 10540 10541 10544 10546 10547 10548 10549 10549 10550 10551 10552 10553 10555 10556 10558 10559 10561 10563 10564 10565 10566 10568 10569 10571 10573 10574 10576 10577 10579 10581 10583 10584 10586 10588 10590 10591 10593 10595 10598 10600 10602 10604 10606 10607 10610 10612 10614 10617 10618 10619 10620 10619 10617 10620 10625 10626 10627 10631
10521 10523 10525 10527 10527 10529 10531 10534 10536 10537 10539 10540 10541 10542 10543 10544 10546 10547 10549 10550 10552 10554 10556 10558 10559 10560 10561 10563 10564 10566 10567 10569 10571 10573 10574 10575 10577 10579 10580 10582 10584 10586 10588 10590 10592 10595 10597 10598 10600 10602 10604 10606 10609 10611 10612 10613 10613 10610 10610 10615 10618 10619 10622
10511 10514 10517 10517 10518 10519 10521 10524 10526 10528 10529 10531 10532 10533 10535 10536 10537 10539 10541 10542 10544 10546 10548 10550 10551 10553 10554 10556 10557 10559 10560 10562 10564 10566 10567 10569 10570 10571 10573 10574 10576 10578 10580 10582 10584 10587 10589 10591 10593 10594 10596 10598 10601 10603 10606 10607 10606 10605 10603 10604 10609 10612 10613
10501 10505 10506 10506 10507 10509 10512 10515 10517 10519 10520 10521 10523 10524 10526 10527 10528 10529 10532 10534 10536 10537 10539 10541 10542 10544 10546 10548 10549 10551 10553 10554 10556 10557 10559 10561 10562 10564 10565 10567 10568 10570 10572 10574 10576 10578 10580 10582 10584 10586 10588 10590 10592 10595 10597 10599 10600 10599 10598 10596 10599 10603 10605
10489 10493 10494 10495 10497 10498 10502 10505 10508 10509 10510 10511 10513 10515 10515 10516 10517 10519 10522 10525 10526 10528 10529 10530 10532 10534 10536 10538 10540 10542 10544 10545 10547 10548 10550 10552 10554 10555 10557 10559 10560 10562 10563 10565 10567 10569 10571 10573 10575 10577 10579 10581 10584 10587 10589 10591 10592 10592 10592 10590 10590 10593 10596
10477 10479 10482 10484 10486 10488 10491 10494 10496 10498 10500 10501 10503 10504 10505 10505 10506 10508 10511 10514 10516 10517 10518 10519 10521 10524 10526 10528 10530 10531 10533 10535 10537 10538 10540 10542 10544 10546 10548 10550 10551 10553 10554 10556 10558 10560 10562 10564 10566 10568 10570 10572 10575 10578 10580 10582 10584 10585 10585 10584 10582 10584 10587
10465 10467 10469 10472 10475 10477 10479 10481 10483 10486 10489 10492 10494 10495 10495 10495 10496 10498 10500 10503 10505 10506 10506 10508 10511 10514 10516 10517 10519 10521 10522 10524 10526 10528 10530 10533 10534 10536 10538 10540 10541 10543 10544 10546 10547 10550 10552 10555 10557 10558 10560 10563 10566 10568 10571 10573 10575 10577 10577 10577 10575 10575 10577
10453 10455 10457 10459 10462 10466 10468 10469 10472 10475 10479 10483 10485 10486 10486 10485 10485 10486 10488 10490 10491 10492 10494 10497 10500 10502 10504 10505 10507 10509 10511 10513 10516 10518 10521 10523 10524 10526 10528 10529 10531 10533 10534 10535 10537 10539 10542 10544 10546 10548 10550 10553 10556 10558 10560 10563 10565 10567 10568 10569 10568 10566 10567
10441 10443 10445 10447 10450 10453 10455 10458 10461 10464 10470 10475 10476 10476 10475 10473 10472 10473 10475 10477 10478 10479 10482 10486 10489 10491 10492 10494 10496 10498 10500 10503 10505 10507 10510 10512 10514 10516 10518 10519 10521 10522 10523 10525 10526 10529 10531 10533 10536 10538 10540 10543 10546 10548 10550 10552 10554 10556 10557 10559 10559 10558 10558
10429 10431 10433 10435 10437 10440 10443 10448 10450 10454 10461 10463 10464 10464 10459 10456 10459 10461 10462 10464 10465 10466 10469 10473 10476 10478 10479 10482 10485 10487 10489 10492 10494 10496 10499 10501 10503 10505 10507 10509 10510 10511 10513 10514 10516 10518 10520 10522 10525 10528 10530 10533 10536 10538 10540 10541 10542 10544 10547 10548 10549 10549 10549
10419 10420 10421 10423 10425 10428 10432 10436 10438 10445 10449 10446 10445 10446 10444 10442 10447 10451 10451 10452 10453 10453 10456 10460 10463 10465 10467 10471 10474 10476 10478 10480 10483 10485 10487 10489 10491 10494 10496 10498 10499 10500 10502 10504 10506 10508 10510 10512 10515 10518 10520 10522 10524 10526 10528 10529 10531 10533 10535 10537 10538 10538 10539
10407 10409 10410 10412 10414 10417 10420 10423 10425 10431 10435 10432 10431 10433 10432 10432 10435 10439 10440 10441 10440 10441 10444 10449 10453 10456 10458 10461 10464 10466 10467 10470 10472 10474 10476 10478 10480 10482 10484 10485 10487 10489 10491 10493 10496 10498 10500 10502 10504 10506 10509 10511 10512 10514 10515 10517 10519 10520 10522 10525 10526 10526 10527
10397 10398 10399 10401 10404 10406 10407 10409 10412 10418 10422 10423 10423 10422 10421 10421 10424 10428 10430 10429 10428 10430 10434 10439 10444 10446 10447 10449 10452 10454 10456 10459 10461 10463 10465 10467 10468 10470 10471 10473 10475 10477 10479 10482 10484 10486 10489 10491 10492 10495 10497 10499 10500 10501 10502 10504 10506 10507 10508 10511 10513 10514 10513
10387 10387 10389 10391 10393 10395 10396 10397 10400 10404 10409 10411 10412 10411 10410 10410 10412 10416 10417 10416 10417 10420 10424 10428 10432 10434 10434 10436 10438 10441 10444 10447 10449 10451 10453 10455 10456 10458 10459 10461 10463 10465 10467 10469 10472 10474 10477 10479 10481 10483 10485 10486 10488 10488 10489 10491 10493 10494 10495 10496 10498 10500 10500
10377 10378 10378 10380 10382 10384 10386 10388 10390 10392 10394 10398 10399 10398 10398 10398 10399 10400 10400 10402 10407 10410 10413 10417 10421 10422 10422 10422 10424 10427 10430 10435 10437 10439 10441 10443 10444 10446 10448 10449 10451 10453 10455 10457 10459 10461 10464 10467 10469 10471 10472 10473 10474 10475 10477 10477 10478 10480 10481 10482 10484 10486 10487
10368 10368 10369 10371 10372 10373 10374 10376 10378 10380 10382 10385 10386 10385 10385 10384 10383 10383 10385 10389 10395 10399 10401 10404 10407 10409 10409 10410 10411 10413 10417 10422 10426 10427 10428 10430 10432 10434 10435 10437 10439 10441 10443 10445 10446 10448 10451 10454 10457 10459 10460 10461 10461 10462 10463 10463 10463 10464 10465 10466 10468 10470 10472
10357 10358 10359 10361 10363 10365 10364 10364 10365 10367 10370 10373 10374 10373 10372 10369 10366 10369 10375 10379 10382 10386 10388 10390 10392 10395 10397 10398 10399 10400 10404 10409 10413 10414 10415 10417 10419 10421 10423 10425 10427 10429 10431 10433 10433 10435 10437 10440 10444 10446 10448 10449 10449 10449 10449 10447 10447 10447 10449 10451 10453 10455 10457
10346 10347 10348 10350 10352 10355 10356 10356 10355 10355 10357 10360 10361 10360 10358 10355 10353 10357 10364 10367 10370 10372 10374 10376 10378 10381 10383 10385 10386 10387 10390 10395 10399 10401 10403 10404 10407 10409 10411 10412 10414 10416 10419 10420 10421 10423 10424 10427 10430 10433 10435 10436 10436 10436 10434 10431 10431 10433 10435 10436 10438 10439 10440
10334 10336 10337 10339 10341 10344 10346 10347 10347 10346 10347 10347 10347 10346 10346 10344 10343 10345 10350 10355 10358 10361 10363 10364 10366 10368 10371 10373 10375 10376 10377 10380 10384 10388 10390 10392 10395 10397 10399 10400 10401 10403 10405 10407 10409 10410 10412 10413 10416 10418 10420 10422 10423 10421 10418 10416 10418 10420 10420 10420 10420 10422 10423
10323 10325 10326 10328 10331 10333 10335 10335 10336 10337 10337 10335 10334 10333 10334 10334 10334 10334 10338 10343 10347 10350 10352 10354 10356 10357 10359 10361 10363 10364 10365 10366 10369 10374 10377 10379 10382 10384 10386 10388 10389 10390 10392 10394 10396 10398 10399 10399 10401 10403 10405 10406 10407 10405 10402 10402 10404 10403 10403 10403 10403 10403 10403
10311 10313 10316 10318 10320 10322 10323 10324 10325 10326 10325 10323 10322 10322 10322 10323 10323 10324 10328 10333 10337 10340 10342 10344 10345 10347 10348 10349 10350 10352 10353 10354 10356 10359 10363 10365 10368 10370 10372 10374 10376 10378 10379 10381 10383 10384 10385 10385 10385 10387 10388 10389 10389 10388 10386 10387 10387 10386 10386 10386 10386 10385 10385
10300 10302 10304 10307 10310 10311 10311 10313 10314 10314 10313 10312 10312 10311 10310 10311 10313 10315 10319 10324 10328 10330 10332 10333 10335 10336 10338 10339 10339 10340 10342 10343 10344 10347 10350 10352 10353 10356 10358 10360 10362 10364 10365 10367 10368 10369 10370 10370 10371 10372 10373 10373 10373 10371 10370 10370 10370 10369 10369 10369 10369 10370 10371
10289 10291 10293 10297 10300 10300 10300 10301 10301 10302 10302 10302 10301 10300 10300 10302 10305 10308 10312 10315 10318 10320 10322 10323 10324 10325 10327 10328 10329 10330 10331 10332 10333 10335 10337 10338 10339 10342 10345 10346 10348 10350 10351 10353 10354 10354 10355 10356 10357 10358 10359 10358 10357 10355 10354 10354 10354 10353 10353 10355 10356 10358 10358
10279 10281 10284 10287 10289 10288 10289 10290 10291 10290 10291 10291 10292 10292 10293 10295 10298 10301 10304 10306 10308 10310 10311 10313 10314 10315 10316 10317 10318 10319 10320 10321 10322 10324 10325 10326 10327 10328 10331 10333 10334 10336 10337 10338 10340 10341 10341 10342 10343 10345 10345 10343 10341 10339 10338 10339 10339 10340 10342 10344 10344 10344 10345